[[{"header":{"parameterUnit":"m.s-1","parameterCategory":1,"la1":30.2991,"la2":30.254,"lo1":-89.0895,"lo2":-89.0444,"dy":0.0017,"dx":0.0017,"nx":28,"ny":28,"refTime":"2025-01-02T09:00:00:Z","depth":0,"parameterNumber":2,"parameterNumberName":"U-component_of_WINDS"},"data":[0,0,0,0,0,0,0,0,0,0,0,0,0,0,0,0,0,0,0,0,0,0,0,0,0,0,0,0,0,0,0,0,0,0,0,0,0,0,0,0,0,0,0,0,0,0,0,0,0,0,0,0,0,0,0,0,0,0,-4.4014,-4.4014,0,-4.407,-4.4071,-4.4072,-4.3961,-4.3958,-4.3954,-4.3951,-4.401,-4.4015,-4.402,0,0,0,0,0,0,0,0,0,0,0,0,0,-4.381,-4.3814,-4.4014,-4.4014,-4.4015,-4.407,-4.4071,-4.4072,-4.3962,-4.3958,-4.3953,-4.3949,-4.4008,-4.4014,-4.402,0,0,0,0,0,0,0,0,0,0,0,0,0,-4.3886,-4.3815,-4.4013,-4.3967,-4.3963,-4.407,-4.4071,-4.4072,-4.3963,-4.3958,-4.3952,-4.3947,-4.4006,-4.4014,-4.4021,-4.4176,0,0,-4.4044,-4.4047,0,0,0,0,0,0,0,0,-4.3882,-4.3893,-4.3973,-4.397,-4.3966,-4.4003,-4.4021,-4.4107,-4.3964,-4.3963,-4.3951,-4.3944,-4.4012,-4.4019,-4.4042,-4.4179,-4.4182,-4.4044,-4.4049,-4.4052,-4.4054,0,0,0,0,0,0,0,-4.3876,-4.389,-4.4036,-4.3974,-4.397,-4.3943,-4.3948,-4.4037,-4.4018,-4.3963,-4.3955,-4.3963,-4.4009,-4.4035,-4.4042,-4.4182,-4.4044,-4.4051,-4.4055,-4.4058,-4.4448,-4.4454,0,0,0,0,0,0,-4.3877,-4.3887,-4.4034,-4.4038,-4.391,-4.3951,-4.3956,-4.3997,-4.4016,-4.4014,-4.3968,-4.3958,-4.4025,-4.4034,-4.4044,-4.4225,-4.4052,-4.4059,-4.4063,-4.4442,-4.4449,-4.4456,0,0,0,0,0,0,-4.3873,-4.3891,-4.4032,-4.396,-4.3976,-4.396,-4.4007,-4.4001,-4.4026,-4.402,-4.4016,-4.3997,-4.4021,-4.4033,-4.4144,-4.4226,-4.4062,-4.4069,-4.4435,-4.4444,-4.4453,-4.4591,0,0,0,0,0,0,-4.3868,-4.389,-4.3949,-4.3962,-4.398,-4.4132,-4.4012,-4.4006,-4.4039,-4.4027,-4.4047,-4.4045,-4.4017,-4.4133,-4.4151,-4.4233,-4.4075,-4.4428,-4.4439,-4.445,-4.4579,-4.4603,-4.4624,0,0,0,0,0,-4.3861,-4.3987,-4.3953,-4.3971,-4.4054,-4.4136,-4.4147,-4.4112,-4.4046,-4.4105,-4.4101,-4.4044,-4.4214,-4.4145,-4.4165,-4.425,-4.4422,-4.4436,-4.4449,-4.4569,-4.4599,-4.4624,0,0,0,0,0,0,-4.3985,-4.3988,-4.395,-4.4084,-4.4111,-4.4118,-4.4191,-4.4145,-4.4192,-4.4178,-4.4134,-4.4139,-4.4258,-4.4265,-4.4188,-4.4401,-4.4307,-4.4325,-4.4392,-4.442,-4.4442,-4.4438,-4.4081,0,0,0,0,0,-4.4028,-4.4095,-4.4093,-4.4212,-4.4227,-4.4207,-4.4242,-4.4213,-4.4239,-4.425,-4.4254,-4.4281,-4.434,-4.4381,-4.4435,-4.4579,-4.4581,-4.4648,-4.467,-4.4689,-4.4705,-4.478,-4.4809,-4.4499,-4.4499,-4.4499,0,0,-4.4117,-4.4127,-4.4172,-4.4237,-4.4254,-4.4324,-4.4217,-4.4296,-4.4347,-4.4262,-4.4366,-4.437,-4.4397,-4.4525,-4.4581,-4.4535,-4.4791,-4.4706,-4.4721,-4.4726,-4.4797,-4.4826,-4.4852,-4.4508,-4.4507,-4.4505,0,0,-4.4315,-4.433,-4.4429,-4.4449,-4.4476,-4.4461,-4.4485,-4.4499,-4.4498,-4.4602,-4.4538,-4.4599,-4.4702,-4.4724,-4.4749,-4.4954,-4.4903,-4.4973,-4.5091,-4.5165,-4.519,-4.5211,-4.5283,-4.5309,-4.4989,-4.4989,-4.4989,0,-4.4423,-4.4526,-4.4486,-4.4569,-4.4599,-4.4524,-4.4624,-4.4644,-4.4689,-4.4711,-4.4657,-4.4785,-4.4798,-4.4929,-4.4979,-4.5002,-4.5027,-4.497,-4.5189,-4.521,-4.523,-4.5298,-4.5325,-4.4997,-4.4997,-4.4996,-4.4995,0,-4.4656,-4.4728,-4.4805,-4.4849,-4.4887,-4.4979,-4.4952,-4.4996,-4.4964,-4.4955,-4.5061,-4.5074,-4.5129,-4.5158,-4.5128,-4.5285,-4.5255,-4.5197,-4.5101,-4.5268,-4.5331,-4.5357,-4.5009,-4.5006,-4.5004,-4.5002,0,0,-4.4935,-4.4954,-4.4983,-4.5001,-4.5024,-4.5079,-4.5167,-4.522,-4.5258,-4.5291,-4.5362,-4.5451,-4.5396,-4.5425,-4.5396,-4.5461,-4.5621,-4.5394,-4.5394,-4.5435,-4.5793,-4.5836,-4.5867,-4.5587,-4.5592,-4.5596,-4.579,0,-4.513,-4.528,-4.5246,-4.5394,-4.5459,-4.5388,-4.5464,-4.5487,-4.5481,-4.5535,-4.5528,-4.5591,-4.5516,-4.5532,-4.5593,-4.5589,-4.5692,-4.5574,-4.5653,-4.5656,-4.5647,-4.59,-4.5946,-4.6128,-4.5814,-4.5819,-4.5822,0,-4.5378,-4.5419,-4.5573,-4.5585,-4.5611,-4.568,-4.5725,-4.5778,-4.5802,-4.5793,-4.5824,-4.5782,-4.5868,-4.5773,-4.589,-4.581,-4.584,-4.5843,-4.5849,-4.5854,-4.5748,-4.5911,-4.6185,-4.6212,-4.586,-4.5857,-4.5855,0,-4.5564,-4.5658,-4.5761,-4.5779,-4.5796,-4.5846,-4.5855,-4.5873,-4.5907,-4.5947,-4.5968,-4.6018,-4.6045,-4.6084,-4.6056,-4.599,-4.6178,-4.608,-4.6172,-4.6173,-4.6214,-4.6211,-4.6496,-4.6236,-4.6235,-4.6235,-4.6234,0,-4.5785,-4.5882,-4.5845,-4.5909,-4.6014,-4.5974,-4.608,-4.6081,-4.6098,-4.616,-4.6103,-4.6162,-4.6123,-4.6179,-4.6159,-4.6258,-4.6271,-4.6265,-4.6258,-4.627,-4.6271,-4.6288,-4.6274,-4.6242,-4.624,-4.6239,-4.6238,0,-4.6011,-4.599,-4.6098,-4.6104,-4.6108,-4.6186,-4.6191,-4.625,-4.6239,-4.6318,-4.6335,-4.6318,-4.6382,-4.6358,-4.6426,-4.6412,-4.6538,-4.6515,-4.653,-4.6524,-4.6616,-4.6607,-4.6921,-4.6959,-4.6675,-4.6678,-4.668,0,-4.6153,-4.6225,-4.6239,-4.6276,-4.6289,-4.635,-4.6384,-4.6347,-4.6385,-4.6417,-4.6472,-4.653,-4.6574,-4.6678,-4.6672,-4.6723,-4.67,-4.6807,-4.6708,-4.6716,-4.67,-4.6696,-4.6702,-4.6826,-4.683,-4.6832,-4.6835,0,-4.6406,-4.6392,-4.6442,-4.6489,-4.6531,-4.6566,-4.6597,-4.663,-4.6595,-4.664,-4.6704,-4.6738,-4.6806,-4.6864,-4.691,-4.6919,-4.6871,-4.6866,-4.6889,-4.6901,-4.6906,-4.6903,-4.6582,-4.6859,-4.6856,-4.6854,-4.6853,-4.6852,-4.6593,-4.6653,-4.6672,-4.673,-4.6748,-4.6778,-4.6833,-4.6829,-4.6881,-4.6933,-4.6908,-4.6982,-4.7002,-4.7058,-4.7074,-4.713,-4.7089,-4.7124,-4.7132,-4.7141,-4.7152,-4.6898,-4.7139,-4.7138,-4.7137,-4.7137,-4.7136,0,-4.6842,-4.685,-4.6904,-4.6947,-4.6993,-4.6943,-4.6974,-4.7015,-4.708,-4.7103,-4.7148,-4.722,-4.7275,-4.7274,-4.7325,-4.737,-4.7349,-4.7385,-4.738,-4.7383,-4.7187,-4.7161,-4.74,-4.74,-4.74,-4.74,-4.74,-4.74,-4.6977,-4.7076,-4.7064,-4.7171,-4.7178,-4.7249,-4.727,-4.7297,-4.7315,-4.7398,-4.7443,-4.7442,-4.7455,-4.7506,-4.7554,-4.7552,-4.7573,-4.7617,-4.7607,-4.7423,-4.7397,-4.7372,-4.7347,-4.7622,-4.7622,-4.7797,-4.7799,-4.78]},{"header":{"parameterUnit":"m.s-1","parameterCategory":1,"la1":30.2991,"la2":30.254,"lo1":-89.0895,"lo2":-89.0444,"dy":0.0017,"dx":0.0017,"nx":28,"ny":28,"refTime":"2025-01-02T09:00:00:Z","depth":0,"parameterNumber":3,"parameterNumberName":"V-component_of_WINDS"},"data":[0,0,0,0,0,0,0,0,0,0,0,0,0,0,0,0,0,0,0,0,0,0,0,0,0,0,0,0,0,0,0,0,0,0,0,0,0,0,0,0,0,0,0,0,0,0,0,0,0,0,0,0,0,0,0,0,0,0,-1.7325,-1.7326,0,-1.7407,-1.7408,-1.7409,-1.7413,-1.7413,-1.7412,-1.7411,-1.7495,-1.7498,-1.7502,0,0,0,0,0,0,0,0,0,0,0,0,0,-1.7172,-1.7174,-1.7325,-1.7326,-1.7327,-1.7407,-1.7408,-1.7409,-1.7414,-1.7413,-1.7411,-1.741,-1.7494,-1.7498,-1.7502,0,0,0,0,0,0,0,0,0,0,0,0,0,-1.7244,-1.7175,-1.7325,-1.7339,-1.7341,-1.7406,-1.7408,-1.7409,-1.7414,-1.7412,-1.7411,-1.741,-1.7493,-1.7498,-1.7502,-1.7559,0,0,-1.7517,-1.7519,0,0,0,0,0,0,0,0,-1.724,-1.725,-1.7336,-1.7338,-1.734,-1.7398,-1.7385,-1.746,-1.7414,-1.7386,-1.7411,-1.7409,-1.7464,-1.7471,-1.749,-1.7563,-1.7567,-1.7517,-1.752,-1.7522,-1.7523,0,0,0,0,0,0,0,-1.7235,-1.7246,-1.7357,-1.7337,-1.734,-1.7341,-1.735,-1.7399,-1.7432,-1.7389,-1.7389,-1.7399,-1.7465,-1.7485,-1.7492,-1.7568,-1.7517,-1.7521,-1.7524,-1.7526,-1.7691,-1.7692,0,0,0,0,0,0,-1.7227,-1.7242,-1.7355,-1.736,-1.7286,-1.7345,-1.7355,-1.7381,-1.7432,-1.7438,-1.74,-1.7399,-1.7478,-1.7486,-1.7495,-1.7564,-1.7522,-1.7526,-1.7529,-1.7689,-1.7691,-1.7693,0,0,0,0,0,0,-1.7224,-1.7237,-1.7351,-1.7301,-1.7316,-1.7349,-1.7379,-1.7384,-1.7403,-1.744,-1.7446,-1.7414,-1.7477,-1.7488,-1.7543,-1.7567,-1.7528,-1.7533,-1.7688,-1.769,-1.7692,-1.7703,0,0,0,0,0,0,-1.722,-1.7236,-1.7258,-1.7302,-1.7318,-1.7398,-1.738,-1.7386,-1.7411,-1.7411,-1.7455,-1.7461,-1.7477,-1.7536,-1.7547,-1.7573,-1.7536,-1.7685,-1.7689,-1.7691,-1.7701,-1.7705,-1.7709,0,0,0,0,0,-1.7214,-1.7259,-1.726,-1.7273,-1.7347,-1.74,-1.7409,-1.7426,-1.7413,-1.7436,-1.7459,-1.746,-1.7562,-1.7541,-1.7555,-1.7581,-1.7684,-1.7688,-1.7691,-1.7699,-1.7704,-1.7709,0,0,0,0,0,0,-1.7218,-1.7265,-1.7266,-1.7326,-1.7359,-1.74,-1.7429,-1.7432,-1.7469,-1.7467,-1.7487,-1.7497,-1.7551,-1.7572,-1.7547,-1.7638,-1.7622,-1.7628,-1.7623,-1.7629,-1.7633,-1.7627,-1.754,0,0,0,0,0,-1.7226,-1.7265,-1.7303,-1.7353,-1.7369,-1.7396,-1.742,-1.743,-1.7465,-1.7479,-1.7506,-1.754,-1.7579,-1.7605,-1.7644,-1.7703,-1.7713,-1.7728,-1.7733,-1.7736,-1.7741,-1.7773,-1.778,-1.7705,-1.7705,-1.7704,0,0,-1.7243,-1.7273,-1.7297,-1.7354,-1.7381,-1.742,-1.7408,-1.7451,-1.748,-1.7485,-1.7538,-1.7559,-1.7598,-1.7655,-1.7681,-1.7674,-1.7764,-1.7741,-1.7743,-1.7747,-1.7777,-1.7785,-1.7791,-1.7707,-1.7707,-1.7706,0,0,-1.7293,-1.732,-1.7363,-1.739,-1.743,-1.7447,-1.7458,-1.7499,-1.7512,-1.7566,-1.757,-1.7605,-1.7674,-1.7701,-1.7723,-1.7782,-1.7784,-1.7794,-1.7817,-1.7848,-1.7854,-1.7859,-1.7879,-1.7886,-1.7799,-1.7799,-1.7799,0,-1.7309,-1.7369,-1.7385,-1.7428,-1.7452,-1.7458,-1.7501,-1.7526,-1.7577,-1.7594,-1.7585,-1.7669,-1.7696,-1.7759,-1.7773,-1.7791,-1.7803,-1.7789,-1.7852,-1.7857,-1.7862,-1.7882,-1.7889,-1.78,-1.78,-1.78,-1.78,0,-1.7385,-1.7427,-1.7457,-1.7504,-1.7533,-1.7575,-1.7598,-1.7624,-1.7631,-1.765,-1.7703,-1.7735,-1.778,-1.7795,-1.7803,-1.7859,-1.7853,-1.7847,-1.7831,-1.787,-1.7889,-1.7896,-1.7801,-1.7801,-1.7801,-1.7801,0,0,-1.7442,-1.7497,-1.7508,-1.7529,-1.7573,-1.7605,-1.7647,-1.769,-1.7712,-1.7746,-1.7781,-1.7838,-1.7833,-1.7859,-1.787,-1.7897,-1.7939,-1.7888,-1.7889,-1.7896,-1.8001,-1.8005,-1.8013,-1.7941,-1.7942,-1.7943,-1.7998,0,-1.7496,-1.7572,-1.7587,-1.7652,-1.769,-1.7695,-1.7732,-1.7762,-1.778,-1.7814,-1.7834,-1.7873,-1.7864,-1.7879,-1.7906,-1.7929,-1.7961,-1.7925,-1.7974,-1.7975,-1.7963,-1.8023,-1.8027,-1.8077,-1.8005,-1.8006,-1.8007,0,-1.7571,-1.7606,-1.7674,-1.7711,-1.7728,-1.776,-1.78,-1.7833,-1.7867,-1.7878,-1.7906,-1.7914,-1.7957,-1.7938,-1.7998,-1.7973,-1.7994,-1.8008,-1.801,-1.8015,-1.7993,-1.8029,-1.8093,-1.8101,-1.8019,-1.8018,-1.8017,0,-1.7604,-1.7668,-1.7717,-1.7735,-1.778,-1.7802,-1.7822,-1.7855,-1.7879,-1.7914,-1.793,-1.7969,-1.7991,-1.8021,-1.8039,-1.8024,-1.8097,-1.808,-1.8107,-1.8106,-1.8122,-1.8121,-1.819,-1.8136,-1.8136,-1.8136,-1.8136,0,-1.7663,-1.7704,-1.7732,-1.7762,-1.7808,-1.7825,-1.7871,-1.789,-1.7919,-1.7953,-1.796,-1.7991,-1.8013,-1.8047,-1.8061,-1.8108,-1.8118,-1.8128,-1.8131,-1.8127,-1.8125,-1.8141,-1.8137,-1.8138,-1.8138,-1.8137,-1.8137,0,-1.7708,-1.7728,-1.7781,-1.7819,-1.7829,-1.7862,-1.7894,-1.7923,-1.794,-1.7982,-1.7993,-1.8021,-1.8061,-1.8082,-1.8133,-1.8142,-1.8194,-1.8196,-1.8183,-1.8184,-1.8209,-1.8206,-1.8291,-1.8302,-1.8241,-1.8241,-1.8242,0,-1.7744,-1.7776,-1.7816,-1.7839,-1.7859,-1.7896,-1.792,-1.7937,-1.7963,-1.8003,-1.8027,-1.8068,-1.8101,-1.8166,-1.819,-1.8228,-1.8231,-1.8257,-1.8236,-1.8231,-1.823,-1.8228,-1.8231,-1.8261,-1.8262,-1.8262,-1.8262,0,-1.7806,-1.7814,-1.7849,-1.7887,-1.7915,-1.7946,-1.7977,-1.7995,-1.8017,-1.8045,-1.8086,-1.8112,-1.8163,-1.8203,-1.8243,-1.8263,-1.8266,-1.8269,-1.8277,-1.8273,-1.8264,-1.8268,-1.8192,-1.8267,-1.8266,-1.8266,-1.8266,-1.8266,-1.7847,-1.7875,-1.7907,-1.7945,-1.797,-1.7998,-1.8026,-1.8047,-1.8081,-1.8124,-1.8132,-1.8175,-1.8207,-1.8261,-1.8283,-1.8316,-1.8311,-1.8323,-1.8326,-1.8328,-1.8329,-1.8258,-1.8324,-1.8324,-1.8324,-1.8324,-1.8324,0,-1.7908,-1.7929,-1.7964,-1.8006,-1.8035,-1.8035,-1.8068,-1.8093,-1.8131,-1.8161,-1.8193,-1.8239,-1.8278,-1.8305,-1.8344,-1.8366,-1.8368,-1.8375,-1.8374,-1.8378,-1.8332,-1.8321,-1.8373,-1.8373,-1.8373,-1.8373,-1.8373,-1.8373,-1.7944,-1.7991,-1.8002,-1.8061,-1.8081,-1.8123,-1.8142,-1.8168,-1.8191,-1.8242,-1.8274,-1.8291,-1.8319,-1.836,-1.8395,-1.8402,-1.8416,-1.8423,-1.843,-1.8387,-1.8381,-1.8376,-1.8366,-1.8426,-1.8426,-1.8473,-1.8473,-1.8473]}]]